Weather History for KAKR - September, 2012

Change the Weather History Date:

Friday, September 21, 2012

  Actual Average (KCAK) Record (KCAK)
Temperature  
Mean Temperature 60 °F 61 °F  
Max Temperature 70 °F 71 °F 92 °F (1931)
Min Temperature 51 °F 51 °F 32 °F (1956)
Degree Days  
Heating Degree Days 4 5  
Month to date heating degree days 56  
Since 1 July heating degree days 76  
Cooling Degree Days 0 1  
Month to date cooling degree days 56  
Year to date cooling degree days 638  
Growing Degree Days 10 (Base 50)    
Moisture  
Dew Point 48 °F    
Average Humidity 63    
Maximum Humidity 94    
Minimum Humidity 33    
Precipitation  
Precipitation 0.28 in 0.12 in 2.21 in (1992)
Month to date precipitation 2.47  
Year to date precipitation 29.67  
Snow  
Snow 0.00 in 0.00 in - ()
Month to date snowfall 0.0  
Since 1 July snowfall 0.0  
Since 1 September snowfall 0.0  
Snow Depth -    
Sea Level Pressure  
Sea Level Pressure 29.90 in    
Wind  
Wind Speed 7 mph (SW)    
Max Wind Speed 16 mph    
Max Gust Speed 23 mph    
Visibility 9 miles    
Events Rain    
T = Trace of Precipitation, MM = Missing Value Source: NWS Daily Summary

Daily Weather History Graph

Daily Weather History Graph

Search for Another Location

Airport or City:

Trip Planner

Search our weather history database for the weather conditions in past years. The results will help you decide how hot, cold, wet, or windy it might be!

Date:

Astronomy

Sep. 21, 2012 Rise Set
Actual Time 7:12 AM EDT 7:23 PM EDT
Civil Twilight 6:45 AM EDT 7:51 PM EDT
Nautical Twilight 6:13 AM EDT 8:23 PM EDT
Astronomical Twilight 5:40 AM EDT 8:56 PM EDT
Moon 1:35 PM EDT (9/21) 11:20 PM EDT (9/21)
Length of Visible Light 13h 05m
Length of Day
12h 11m
Waxing Crescent, 37% of the Moon is Illuminated
Sep 21
Waxing Crescent
Sep 22
First Quarter
Sep 29
Full
Oct 8
Last Quarter
Oct 15
New

Hourly Weather History & Observations

Time (EDT) Temp. Dew Point Humidity Pressure Visibility Wind Dir Wind Speed Gust Speed Precip Events Conditions
12:54 AM 63.0 °F 51.1 °F 65% 29.93 in 10.0 mi SSW 5.8 mph - N/A   Overcast
1:54 AM 62.1 °F 51.1 °F 67% 29.93 in 10.0 mi SSW 6.9 mph - N/A   Overcast
2:54 AM 61.0 °F 51.1 °F 70% 29.93 in 10.0 mi SSW 6.9 mph - N/A   Mostly Cloudy
3:54 AM 60.1 °F 51.1 °F 72% 29.92 in 10.0 mi SSW 4.6 mph - N/A   Scattered Clouds
4:54 AM 60.1 °F 51.1 °F 72% 29.92 in 10.0 mi South 4.6 mph - N/A   Overcast
5:54 AM 60.1 °F 51.1 °F 72% 29.92 in 10.0 mi SSW 6.9 mph - N/A   Overcast
6:54 AM 57.0 °F 51.1 °F 81% 29.93 in 10.0 mi SSW 4.6 mph - N/A   Mostly Cloudy
7:54 AM 57.0 °F 52.0 °F 83% 29.94 in 10.0 mi SSW 5.8 mph - N/A   Mostly Cloudy
8:54 AM 61.0 °F 52.0 °F 72% 29.95 in 10.0 mi WSW 6.9 mph - N/A   Clear
9:54 AM 63.0 °F 52.0 °F 67% 29.96 in 10.0 mi WSW 5.8 mph - N/A   Clear
10:54 AM 66.0 °F 50.0 °F 56% 29.96 in 10.0 mi West 10.4 mph - N/A   Clear
11:54 AM 66.9 °F 45.0 °F 45% 29.96 in 10.0 mi West 10.4 mph - N/A   Clear
12:54 PM 68.0 °F 42.1 °F 39% 29.96 in 10.0 mi WSW 8.1 mph - N/A   Clear
1:54 PM 66.9 °F 39.9 °F 37% 29.96 in 10.0 mi West 8.1 mph - N/A   Clear
2:54 PM 70.0 °F 39.9 °F 33% 29.94 in 10.0 mi SW 12.7 mph 19.6 mph N/A   Clear
3:54 PM 68.0 °F 39.0 °F 35% 29.93 in 10.0 mi SW 10.4 mph 19.6 mph N/A   Clear
4:54 PM 69.1 °F 39.9 °F 35% 29.91 in 10.0 mi SW 10.4 mph - N/A   Scattered Clouds
5:54 PM 66.0 °F 39.9 °F 38% 29.89 in 10.0 mi South 5.8 mph - N/A   Overcast
6:54 PM 62.1 °F 45.0 °F 53% 29.91 in 10.0 mi SSW 4.6 mph - 0.00 in Rain Light Rain
7:54 PM 62.1 °F 48.0 °F 60% 29.90 in 10.0 mi Calm Calm - 0.00 in Rain Light Rain
8:54 PM 59.0 °F 51.1 °F 75% 29.85 in 10.0 mi NE 4.6 mph - 0.00 in   Overcast
9:54 PM 57.9 °F 50.0 °F 75% 29.80 in 10.0 mi NE 8.1 mph - N/A   Overcast
10:54 PM 57.9 °F 48.9 °F 72% 29.75 in 10.0 mi NNE 4.6 mph - 0.00 in Rain Light Rain
11:34 PM 53.6 °F 50.0 °F 88% 29.82 in 2.5 mi NW 16.1 mph 23.0 mph 0.16 in Rain Heavy Rain
11:51 PM 51.8 °F 50.0 °F 94% 29.80 in 3.0 mi North 11.5 mph - 0.27 in Rain Heavy Rain
11:54 PM 52.0 °F 50.0 °F 93% 29.79 in 3.0 mi North 12.7 mph - 0.28 in Rain Heavy Rain